Flag for Germany Weather past 2 weeks in Straubing, Bavaria, Germany

Now
32 °F

Overcast.


Feels Like: 29 °F
Forecast: 29 / 35 °F
Wind: 3 mph from Southwest

Location: Straubing

Current Time: Jan 29, 2015 at 8:12:29 AM

Latest Report: Jan 29, 2015 at 8:00 AM


Visibility: 38 mi

Pressure: 29.58 "Hg

Humidity: 85%

Dew point: 28 °F

Location of StraubingLocation

Historic Weather in Straubing — Graph

°F

Straubing temperature yesterday

Maximum temperature yesterday: 37 °F (at 2:00 PM)
Minimum temperature yesterday: 32 °F (at 10:00 PM)
Average temperature yesterday: 34 °F

Past Weeks' High & Low Weather Summary

 TemperatureHumidityPressure
High48 °F (Jan 14, 10:00 AM)100% (Jan 23, 3:00 AM)30.39 "Hg (Jan 23, 3:00 AM)
Low25 °F (Jan 22, 8:00 AM)71% (Jan 14, 10:00 AM)29.54 "Hg (Jan 29, 4:00 AM)
Average34 °F90%30.03 "Hg
* Reported Jan 14 7:00 AM — Jan 29 7:00 AM, Straubing, Weather by CustomWeather, © 2014

Note: Actual official high and low records may vary slightly from our data, if they occured in-between our weather recording intervals... More about our weather records

Advertising

Straubing weather history for previous 24 hours

 ConditionsComfort  
Time TempWeatherWind HumidityBarometerVisibility
7:00 AM
Jan 29
33 °FOvercast.3 mph88%29.57 "Hg25 mi
6:00 AM33 °FOvercast.2 mph88%29.56 "Hg25 mi
5:00 AM34 °FOvercast.3 mph87%29.57 "Hg31 mi
4:00 AM36 °FLight rain. Overcast.3 mph91%29.54 "Hg16 mi
3:00 AM33 °FLight rain. Low clouds.1 mph98%29.55 "Hg6 mi
2:00 AM33 °FLight snow. Low clouds.2 mph99%29.56 "Hg2 mi
1:00 AM32 °FSnow. Low clouds.3 mph100%29.59 "Hg1 mi
12:00 AM31 °FSnow. Low clouds.3 mph97%29.63 "Hg1 mi
11:00 PM
Jan 28
32 °FLight freezing rain. Overcast.3 mph88%29.67 "Hg1 mi
10:00 PM32 °FOvercast.3 mph83%29.70 "Hg11 mi
9:00 PM33 °FOvercast.5 mph82%29.74 "Hg11 mi
8:00 PM32 °FPassing clouds.5 mph85%29.79 "Hg11 mi
6:00 PM34 °FOvercast.3 mph85%29.88 "Hg9 mi
5:00 PM35 °FOvercast.5 mph81%29.91 "Hg11 mi
3:00 PM37 °FOvercast.6 mph78%29.98 "Hg10 mi
2:00 PM37 °FOvercast.5 mph76%30.01 "Hg16 mi
1:00 PM36 °FOvercast.6 mph76%30.06 "Hg17 mi
12:00 PM34 °FOvercast.6 mph85%30.10 "Hg6 mi
11:00 AM34 °FOvercast.5 mph87%30.12 "Hg5 mi
9:00 AM34 °FOvercast.5 mph86%30.15 "Hg6 mi
8:00 AM34 °FFog.2 mph90%30.16 "Hg4 mi
Weather by CustomWeather, © 2014

See weather overviewHow to use our weather pages